Location: Silverdale
(47.6506°N, 122.6941°W)
Time: 00:22:40
(UTC+00:00)

A-11 Canister half - Pass Details

Date: 06 October 2022
Orbit: 1524 x 1685 km, 47.3° (Epoch: 05 December)

Event Time Altitude Azimuth Distance (km) Brightness Sun altitude
Rises 04:37:15 0° 290° (WNW) 4,704 12.7 -29.5°
Reaches altitude 10° 04:40:24 10° 285° (WNW) 3,734 11.9 -30.0°
Maximum altitude 04:49:16 47° 215° (SW) 1,996 9.5 -31.3°
Enters shadow 04:51:29 41° 182° (S) 2,158 9.5 -31.6°
